Погода в Савинском

Россия / Ярославская область     57°56′27″N   39°22′11″E
В апреле 2022 года жителям России запретили посещать сайт meteo.paraplan.net по решению Генеральной прокуратуры. Аудитория сайта уменьшилась в 10 раз. Владельцы сайта не видят смысла в поддержке погодного сервера в таких условиях. Сайт будет закрыт в октябре.
темп.,
°C
ветер,
м/с
пор.,
м/с
влажн.,
%
обл.,
%
осадки,
мм/ч
давл.,
гПа
погр.,
м
25 сентября, вс
вс2500:00+8юв5993100 0.3 1000604
03:00+7вюв41091100 0.4 1001583
06:00+8вюв5109278 0.4 1002792
09:00+9вюв4989100 0.7 1003740
12:00+10в5984100 0.4 1005933
15:00+11вюв477494 0.8 10041016
18:00+9в2487100 0.9 1006103
21:00+7св229197 1.1 100634
26 сентября, пн
пн2600:00+8св238995 0.0 100555
03:00+7с2292100 0.0 100526
06:00+7ссз1296100 0.3 100542
09:00+9ссз1288100 0.5 1005275
12:00+9зсз1290100 0.2 1006213
15:00+8з2592100 1.6 1007279
18:00+8з2794100 2.7 1008350
21:00+7юз3795100 3.9 1009338
27 сентября, вт
вт2700:00+7юз3795100 0.4 1010341
03:00+7юз269384 0.5 1011208
06:00+6ююз229379 0.0 101346
09:00+8юв1287100 0.0 1014149
12:00+11юв247319 0.1 1015658
15:00+12вюв346491 0.3 10151056
18:00+8в37846 0.3 1015158
21:00+6в39945 0.4 1017200
28 сентября, ср
ср2800:00+5вюв38945 0.0 1017171
03:00+5в39965 0.0 1017191
06:00+5в4119894 0.0 1017346
09:00+6в51192100 0.1 1018555
12:00+9в6973100 0.0 1017903
15:00+9в6963100 0.0 10161212
18:00+5в61274100 0.0 1017802
21:00+5в61272100 0.0 10171015
29 сентября, чт
чт2900:00+5в61371100 0.0 1016829
03:00+5в61370100 0.0 1016835
06:00+3в61474100 0.1 1016717
09:00+3в71573100 0.3 1017788
12:00+3в61481100 0.4 1018756
15:00+2в51497100 2.7 1020621
18:00+2вюв51397100 1.4 1022711
21:00+3вюв41293100 1.6 1023769